Inquirer Daily News

Weather

Get conditions and forecasts for any City, State, ZIP code or Country:  
Northeast Philadelphia, PA
on Friday, December 14, 2012

Friday
Previous Day Next Day
Daily Summary
 ActualAverage (KTTN)Record (KTTN)
Temperature
Mean Temperature °F 36°F  
Max Temperature 51°F 43°F 67°F (1901)
Min Temperature 26°F 28°F 8°F (2005)
Degree Days
Heating Degree Days 26 29  
Month to date heating degree days 379  
Since 1 July heating degree days 1355  
Cooling Degree Days 0 0  
Month to date cooling degree days 0  
Year to date cooling degree days 965  
Moisture
Dew Point 24°F   
Average Humidity 61    
Maximum Humidity 85    
Minimum Humidity 31    
Precipitation
Precipitation 0.00 in 0.13 in 1.78 in (1897)
Month to date precipitation 1.92  
Year to date precipitation 44.66  
Wind
Wind Speed 3 mph   
Max Wind Speed 12 mph   
Max Gust Speed mph   
Visibility 10 miles   
Events     

Key: T is trace of precipitation, MM is missing value
Source: NWS Daily Summary
Time(EST)TemperatureDew PointHumidity Pressure Visibility Wind DirectionWind SpeedGust SpeedPrecipitationEvents Conditions
12:54 AM 28.0°F 23.0°F 81% 30.35 in 10.0 miles Calm Calm - N/A   Clear
1:54 AM 28.0°F 23.0°F 81% 30.35 in 10.0 miles Calm Calm - N/A   Clear
2:54 AM 28.0°F 24.1°F 85% 30.34 in 10.0 miles West 3.5 mph - N/A   Clear
3:54 AM 27.0°F 23.0°F 85% 30.32 in 10.0 miles Calm Calm - N/A   Clear
4:54 AM 27.0°F 21.9°F 81% 30.32 in 10.0 miles Calm Calm - N/A   Clear
5:54 AM 26.6°F 21.2°F 80% 30.32 in 9.0 miles Calm Calm - N/A   Clear
6:54 AM 26.1°F 21.9°F 84% 30.32 in 9.0 miles Calm Calm - N/A   Clear
7:54 AM 30.0°F 26.1°F 85% 30.32 in 8.0 miles WSW 3.5 mph - N/A   Clear
8:54 AM 37.0°F 27.0°F 67% 30.32 in 10.0 miles WSW 6.9 mph - N/A   Clear
9:54 AM 42.1°F 26.1°F 53% 30.32 in 10.0 miles WSW 8.1 mph - N/A   Clear
10:54 AM 45.0°F 25.0°F 46% 30.29 in 10.0 miles SW 10.4 mph - N/A   Clear
11:54 AM 48.0°F 25.0°F 41% 30.27 in 10.0 miles WSW 8.1 mph - N/A   Clear
12:54 PM 48.9°F 26.1°F 41% 30.23 in 10.0 miles SSW 9.2 mph - N/A   Clear
1:54 PM 50.0°F 26.1°F 39% 30.22 in 10.0 miles West 11.5 mph - N/A   Clear
2:54 PM 51.1°F 23.0°F 33% 30.21 in 10.0 miles WSW 10.4 mph - N/A   Clear
3:54 PM 50.0°F 19.9°F 31% 30.21 in 10.0 miles West 11.5 mph - N/A   Clear
5:54 PM 44.1°F 21.9°F 42% 30.22 in 10.0 miles West 4.6 mph - N/A   Clear
6:54 PM 43.0°F 21.9°F 43% 30.24 in 10.0 miles Calm Calm - N/A   Clear
7:54 PM 42.1°F 23.0°F 47% 30.26 in 10.0 miles West 3.5 mph - N/A   Clear
8:54 PM 37.0°F 23.0°F 57% 30.26 in 10.0 miles Calm Calm - N/A   Clear
9:54 PM 33.1°F 23.0°F 66% 30.26 in 10.0 miles Calm Calm - N/A   Clear
10:54 PM 33.1°F 24.1°F 70% 30.26 in 10.0 miles Calm Calm - N/A   Clear
11:54 PM 33.1°F 25.0°F 72% 30.27 in 10.0 miles Calm Calm - N/A   Clear
Astronomy
Sunrise:07:14 AM (EST) Moon Rise:08:17 AM (EST)12/14
Sunset:04:35 PM (EST) Moon Set:06:25 PM (EST)12/14
Moon Phase
Dec. 14 Dec. 20 Dec. 28 Jan. 04 Jan. 11

Copyright © 2014 The Weather Underground, Inc.